Weather History for Aberdeen / Amory, MS

Change the Weather History Date:

Monday, November 26, 2012

  Actual Average (KCBM) Record (KCBM)
Temperature  
Mean Temperature 46 °F -  
Max Temperature 59 °F 60 °F 75 °F (2011)
Min Temperature 32 °F 39 °F 24 °F (2014)
Degree Days  
Heating Degree Days 20    
Moisture  
Dew Point 36 °F    
Average Humidity 61    
Maximum Humidity 88    
Minimum Humidity 51    
Precipitation  
Precipitation 0.00 in - - ()
Sea Level Pressure  
Sea Level Pressure 30.12 in    
Wind  
Wind Speed 5 mph ()    
Max Wind Speed 10 mph    
Max Gust Speed -    
Visibility 9.0 miles    
Events Rain    
Averages and records for this station are not official NWS values.
T = Trace of Precipitation, MM = Missing Value Source: Averaged Metar Reports

Daily Weather History Graph

Daily Weather History Graph

Search for Another Location

Airport:

Trip Planner

Search our weather history database for the weather conditions in past years. The results will help you decide how hot, cold, wet, or windy it might be!

Date:

Astronomy

Nov. 26, 2012 Rise Set
Actual Time 6:36 AM CST 4:45 PM CST
Civil Twilight 6:09 AM CST 5:12 PM CST
Nautical Twilight 5:39 AM CST 5:43 PM CST
Astronomical Twilight 5:09 AM CST 6:13 PM CST
Moon 3:35 PM CST (11/26) 4:49 AM CST (11/26)
Length of Visible Light 11h 03m
Length of Day
10h 08m
Waxing Gibbous, 97% of the Moon is Illuminated
Nov 26
Waxing Gibbous
Nov 28
Full
Dec 6
Last Quarter
Dec 13
New
Dec 19
First Quarter

Hourly Weather History & Observations

Time (CST) Temp. Dew Point Humidity Pressure Visibility Wind Dir Wind Speed Gust Speed Precip Events Conditions
12:15 AM 33.8 °F 21.2 °F 60% 30.11 in 10.0 mi North - - N/A   Clear
12:35 AM 33.8 °F 19.4 °F 56% 30.11 in 10.0 mi North - - N/A   Clear
12:55 AM 32.0 °F 19.4 °F 60% 30.11 in 10.0 mi North - - N/A   Clear
1:15 AM 32.0 °F 19.4 °F 60% 30.11 in 10.0 mi North - - N/A   Clear
1:35 AM 32.0 °F 19.4 °F 60% 30.11 in 9.0 mi North - - N/A   Clear
1:55 AM 32.0 °F 19.4 °F 60% 30.12 in 10.0 mi North - - N/A   Clear
2:15 AM 32.0 °F 19.4 °F 60% 30.12 in 10.0 mi North - - N/A   Clear
2:35 AM 32.0 °F 19.4 °F 60% 30.13 in 10.0 mi North - - N/A   Clear
2:55 AM 32.0 °F 19.4 °F 60% 30.13 in 10.0 mi North - - N/A   Clear
3:15 AM 32.0 °F 19.4 °F 60% 30.13 in 9.0 mi North - - N/A   Clear
3:35 AM 32.0 °F 19.4 °F 60% 30.13 in 9.0 mi North - - N/A   Clear
3:55 AM 32.0 °F 19.4 °F 60% 30.13 in 10.0 mi North - - N/A   Clear
4:15 AM 32.0 °F 19.4 °F 60% 30.13 in 10.0 mi North - - N/A   Clear
4:35 AM 32.0 °F 19.4 °F 60% 30.13 in 10.0 mi North - - N/A   Partly Cloudy
4:55 AM 35.6 °F 21.2 °F 56% 30.13 in 10.0 mi North - - N/A   Mostly Cloudy
5:15 AM 39.2 °F 26.6 °F 61% 30.14 in 10.0 mi North - - N/A   Overcast
5:35 AM 41.0 °F 28.4 °F 61% 30.15 in 10.0 mi North - - N/A   Overcast
5:55 AM 42.8 °F 28.4 °F 57% 30.15 in 10.0 mi North - - N/A   Mostly Cloudy
6:15 AM 42.8 °F 28.4 °F 57% 30.15 in 10.0 mi North - - N/A   Mostly Cloudy
6:35 AM 41.0 °F 26.6 °F 57% 30.15 in 10.0 mi North - - N/A   Scattered Clouds
6:55 AM 41.0 °F 28.4 °F 61% 30.15 in 9.0 mi North - - N/A   Mostly Cloudy
7:15 AM 42.8 °F 28.4 °F 57% 30.16 in 10.0 mi North - - N/A   Mostly Cloudy
7:35 AM 42.8 °F 30.2 °F 61% 30.16 in 8.0 mi North - - N/A   Scattered Clouds
7:55 AM 46.4 °F 32.0 °F 57% 30.17 in 9.0 mi North - - N/A   Mostly Cloudy
8:15 AM 48.2 °F 32.0 °F 54% 30.17 in 9.0 mi North - - N/A   Mostly Cloudy
8:35 AM 48.2 °F 33.8 °F 58% 30.17 in 9.0 mi North - - N/A   Mostly Cloudy
8:55 AM 50.0 °F 33.8 °F 54% 30.17 in 9.0 mi North - - N/A   Overcast
9:15 AM 51.8 °F 35.6 °F 54% 30.17 in 8.0 mi North - - N/A   Overcast
9:35 AM 51.8 °F 35.6 °F 54% 30.18 in 8.0 mi North - - N/A   Overcast
9:55 AM 51.8 °F 35.6 °F 54% 30.19 in 8.0 mi West 10.4 mph - N/A   Overcast
10:15 AM 51.8 °F 35.6 °F 54% 30.19 in 8.0 mi West 6.9 mph - N/A   Overcast
10:35 AM 51.8 °F 35.6 °F 54% 30.18 in 9.0 mi WSW 8.1 mph - N/A   Overcast
10:55 AM 53.6 °F 37.4 °F 54% 30.17 in 8.0 mi WSW 5.8 mph - N/A   Mostly Cloudy
11:15 AM 57.2 °F 39.2 °F 51% 30.15 in 8.0 mi West 8.1 mph - N/A   Partly Cloudy
11:35 AM 57.2 °F 42.8 °F 59% 30.14 in 9.0 mi West 8.1 mph - N/A   Partly Cloudy
11:55 AM 57.2 °F 41.0 °F 55% 30.14 in 8.0 mi West 6.9 mph - N/A Rain Light Rain
12:15 PM 55.4 °F 39.2 °F 54% 30.14 in 7.0 mi West 8.1 mph - N/A   Mostly Cloudy
12:35 PM 57.2 °F 39.2 °F 51% 30.13 in 9.0 mi West 6.9 mph - N/A   Mostly Cloudy
12:55 PM 57.2 °F 41.0 °F 55% 30.11 in 7.0 mi WSW 8.1 mph - N/A   Mostly Cloudy
1:15 PM 57.2 °F 41.0 °F 55% 30.10 in 9.0 mi WSW 5.8 mph - N/A   Mostly Cloudy
1:35 PM 59.0 °F 42.8 °F 55% 30.10 in 9.0 mi West 6.9 mph - N/A   Mostly Cloudy
1:55 PM 59.0 °F 42.8 °F 55% 30.09 in 9.0 mi West 8.1 mph - N/A   Mostly Cloudy
2:15 PM 57.2 °F 41.0 °F 55% 30.09 in 8.0 mi WSW 4.6 mph - N/A   Light Drizzle
2:35 PM 57.2 °F 41.0 °F 55% 30.09 in 9.0 mi Calm Calm - N/A   Overcast
2:55 PM 57.2 °F 41.0 °F 55% 30.10 in 8.0 mi West 4.6 mph - N/A   Overcast
3:15 PM 57.2 °F 39.2 °F 51% 30.10 in 3.0 mi WSW 3.5 mph - N/A   Haze
3:35 PM 55.4 °F 39.2 °F 54% 30.10 in 9.0 mi Calm Calm - N/A   Overcast
3:55 PM 55.4 °F 39.2 °F 54% 30.09 in 7.0 mi Calm Calm - N/A   Mostly Cloudy
4:15 PM 55.4 °F 39.2 °F 54% 30.09 in 8.0 mi SW 3.5 mph - N/A   Mostly Cloudy
4:55 PM 55.4 °F 39.2 °F 54% 30.08 in 9.0 mi WSW 4.6 mph - N/A   Scattered Clouds
5:15 PM 55.4 °F 39.2 °F 54% 30.08 in 10.0 mi WSW 3.5 mph - N/A   Mostly Cloudy
5:35 PM 57.2 °F 39.2 °F 51% 30.08 in 10.0 mi Calm Calm - N/A   Overcast
5:55 PM 57.2 °F 41.0 °F 55% 30.08 in 10.0 mi Calm Calm - N/A   Overcast
6:15 PM 57.2 °F 41.0 °F 55% 30.08 in 9.0 mi West 3.5 mph - N/A Rain Light Rain
6:35 PM 57.2 °F 44.6 °F 63% 30.09 in 10.0 mi West 4.6 mph - N/A   Light Drizzle
6:55 PM 57.2 °F 53.6 °F 88% 30.10 in 9.0 mi West 3.5 mph - N/A   Overcast
7:15 PM 57.2 °F 48.2 °F 72% 30.10 in 9.0 mi West 3.5 mph - N/A   Overcast
7:35 PM 57.2 °F 48.2 °F 72% 30.10 in 10.0 mi Calm Calm - N/A   Overcast
7:55 PM 57.2 °F 44.6 °F 63% 30.09 in 9.0 mi West 3.5 mph - N/A   Overcast
8:15 PM 57.2 °F 46.4 °F 67% 30.10 in 9.0 mi Calm Calm - N/A   Overcast
8:35 PM 57.2 °F 53.6 °F 88% 30.11 in 10.0 mi NW 3.5 mph - N/A   Overcast
8:55 PM 57.2 °F 53.6 °F 88% 30.12 in 10.0 mi Calm Calm - N/A   Overcast
9:35 PM 57.2 °F 51.8 °F 82% 30.11 in 9.0 mi Calm Calm - N/A   Overcast
9:55 PM 57.2 °F 48.2 °F 72% 30.11 in 9.0 mi Calm Calm - N/A   Overcast
10:15 PM 57.2 °F 46.4 °F 67% 30.10 in 9.0 mi West 4.6 mph - N/A   Overcast
10:35 PM 57.2 °F 46.4 °F 67% 30.09 in 9.0 mi West 5.8 mph - N/A   Overcast
10:55 PM 57.2 °F 48.2 °F 72% 30.10 in 8.0 mi WNW 5.8 mph - N/A   Overcast
11:15 PM 59.0 °F 51.8 °F 77% 30.10 in 8.0 mi Calm Calm - N/A   Overcast
11:35 PM 59.0 °F 51.8 °F 77% 30.10 in 8.0 mi Calm Calm - N/A   Overcast
11:55 PM 59.0 °F 51.8 °F 77% 30.09 in 8.0 mi Calm Calm - N/A   Overcast